Location: Coopersdale
(40.3556°N, 78.9372°W)
Time: 06:34:50
(UTC+00:00)

Tiros 1 despin weight - Pass Details

Date: 24 January 2021
Orbit: 593 x 642 km, 48.2° (Epoch: 28 February)

Event Time Altitude Azimuth Distance (km) Brightness Sun altitude
Rises 02:33:01 0° 292° (WNW) 2,835 ? -47.1°
Enters shadow 02:33:09 - 291° (WNW) 2,782 ? -47.2°
Reaches altitude 10° 02:35:36 10° 279° (W) 1,925 - -47.6°
Maximum altitude 02:39:12 25° 224° (SW) 1,210 - -48.3°
Drops below altitude 10° 02:42:47 10° 169° (SSE) 1,913 - -48.9°
Sets 02:45:22 0° 155° (SSE) 2,811 - -49.4°
